Location: *
(45.9500°N, 9.0833°E)
Time: 05:52:46
(UTC+00:00)

SR - Pass Details

Date: 22 June 2021
Orbit: 577 x 878 km, 66.7° (Epoch: 24 July)

Event Time Altitude Azimuth Distance (km) Brightness Sun altitude
Rises 14:49:57 0° 197° (SSW) 3,444 ? 43.4°
Reaches altitude 10° 14:52:28 10° 193° (SSW) 2,521 ? 43.0°
Maximum altitude 14:58:12 56° 117° (ESE) 1,038 ? 42.0°
Drops below altitude 10° 15:03:53 10° 41° (NE) 2,495 ? 41.0°
Sets 15:06:22 0° 37° (NE) 3,406 ? 40.6°
